SAUDISAT 1C

Satellite information

Favourite Embed

Satellite Type and Status

PAYLOADIN ORBIT

Key statistics

Satellite SAUDISAT 1C at a glance.

Uptime

8394

Days in orbit

Revolutions

≈ 14.8

Per day

Orbit

LEO

Low Earth Orbit

Inclination

64.6

Latest

Satellite identification and parameters

Extended collection of information and parameters for SAUDISAT 1C.

Object identification

Identified? True

Debris? False

Object name: SAUDISAT 1C

International designator: 2002-058C

Object number (NORAD): 27607

Object ID (CCSDS): 27607

Country: SAUDI ARABIA (SAUD)

Current information (Y/N): Y

RCS size: SMALL

Orbital parameters

Period: 97.141 minutes

Inclination: 64.5547 deg

SMA: 6999.935 km

Apoapsis: 672.358 km

Periapsis: 571.242 km

RAAN: 347.0637 deg

Eccentricy: 0.00722266

Argument of periapsis: 296.6962 deg

Mean anomaly: 62.6762 deg

Mean motion: 14.8238761 rev/day

Mean motion (dot): 0.00003403 rev/day2

B* drag term: 0.00042309666 1/REarth

Two-line elements (TLE)

Creation date: Dec. 12, 2025, 10:14 a.m.

Reference frame: TEME

Reference center: EARTH

Epoch: Dec. 12, 2025, 6:22 a.m. UTC

TLE line 0: 0 SAUDISAT 1C

TLE line 1: 1 27607U 02058C 25346.26577532 .00003403 00000-0 42310-3 0 9997

TLE line 2: 2 27607 64.5547 347.0637 0072227 296.6962 62.6762 14.82387610236746

Live tracking on map

Real-time ground track for satellite SAUDISAT 1C.

In-orbit conjunctions

There are no conjunctions computed for SAUDISAT 1C, at the moment. Check back to stay up to date, as we update our databases every day.

Go to all conjunctions

Associated space launch

Technology satellite for OHB-System, Germany.

SAUDISAT 1C was lifted into orbit during the mission ‘Dnepr | AATiS-OSCAR-49’, on board a Dnepr space rocket.

The launch took place on Dec. 20, 2002, 5 p.m. from 109/95.

For more information about the launch, click the button.

Launch to space Dnepr | AATiS-OSCAR-49
Dnepr | AATiS-OSCAR-49

Agency: N/A

Status: Launch Successful

Launch date: Dec. 20, 2002, 5 p.m. UTC

Rocket: Dnepr

Launch pad: 109/95

Location: Baikonur Cosmodrome, Republic of Kazakhstan

...

Latest news about this satellite

There are no fresh news available about this satellite. Check back as we update our databases every day.


Newsletter sign-up

Weekly statistics, charts and insights to help you stay on top of the space industry.